Torna al catalogo

STARLINK-37234

AttivoComunicazioniVLEO
NORAD 68535·PAYLOAD·🇺🇸 United States

Lanciato Mar 30, 2026 da Cape Canaveral Space Force Station

Loading…

Prossimi Passaggi (prossime 24 ore)

TLE

AggiornatoSource: CelesTrak SupGP

Epoca: Sep 14, 2026, 22:49 UTC

1 68535C 26068AD  26257.95118056  .00027057  00000+0  79969-3 0  2576
2 68535  53.1572 320.0069 0001200  89.7622 301.6619 15.34366262    14

Traccia STARLINK-37234 in tempo reale con AllMySat

Download on the App Store